TimeCDT,TemperatureF,Dew PointF,Humidity,Sea Level PressureIn,VisibilityMPH,Wind Direction,Wind SpeedMPH,Gust SpeedMPH,PrecipitationIn,Events,Conditions,WindDirDegrees,DateUTC
12:52 AM,43.0,36.0,76,30.09,10.0,Variable,3.5,-,N/A,,Clear,0,2013-11-02 05:52:00
1:52 AM,41.0,36.0,82,30.10,10.0,West,3.5,-,N/A,,Clear,270,2013-11-02 06:52:00
2:52 AM,41.0,35.1,79,30.12,10.0,West,6.9,-,N/A,,Clear,270,2013-11-02 07:52:00
3:52 AM,39.0,34.0,82,30.13,10.0,West,4.6,-,N/A,,Clear,270,2013-11-02 08:52:00
4:52 AM,37.9,34.0,86,30.15,10.0,West,5.8,-,N/A,,Clear,270,2013-11-02 09:52:00
5:52 AM,37.0,34.0,89,30.17,10.0,West,3.5,-,N/A,,Clear,280,2013-11-02 10:52:00
6:52 AM,37.0,33.1,86,30.19,10.0,Variable,3.5,-,N/A,,Clear,0,2013-11-02 11:52:00
7:52 AM,37.0,33.1,86,30.22,10.0,Calm,Calm,-,N/A,,Clear,0,2013-11-02 12:52:00
8:52 AM,37.9,34.0,86,30.25,10.0,West,5.8,-,N/A,,Clear,270,2013-11-02 13:52:00
9:52 AM,43.0,34.0,71,30.27,10.0,West,8.1,-,N/A,,Clear,280,2013-11-02 14:52:00
10:52 AM,46.9,35.1,63,30.27,10.0,WNW,8.1,-,N/A,,Clear,290,2013-11-02 15:52:00
11:52 AM,51.1,35.1,54,30.28,10.0,Variable,4.6,-,N/A,,Clear,0,2013-11-02 16:52:00
12:52 PM,55.0,33.1,43,30.26,10.0,NW,6.9,-,N/A,,Clear,310,2013-11-02 17:52:00
1:52 PM,57.9,33.1,39,30.23,10.0,Variable,6.9,-,N/A,,Clear,0,2013-11-02 18:52:00
2:52 PM,59.0,32.0,36,30.21,10.0,West,8.1,-,N/A,,Clear,260,2013-11-02 19:52:00
3:52 PM,60.1,30.0,32,30.19,10.0,West,8.1,-,N/A,,Clear,280,2013-11-02 20:52:00
4:52 PM,59.0,30.0,33,30.18,10.0,NW,3.5,-,N/A,,Clear,310,2013-11-02 21:52:00
5:52 PM,57.0,30.9,37,30.17,10.0,Calm,Calm,-,N/A,,Clear,0,2013-11-02 22:52:00
6:52 PM,45.0,34.0,65,30.17,10.0,Calm,Calm,-,N/A,,Clear,0,2013-11-02 23:52:00
7:52 PM,39.0,36.0,89,30.19,10.0,Calm,Calm,-,N/A,,Clear,0,2013-11-03 00:52:00
8:52 PM,42.1,33.1,70,30.17,10.0,Calm,Calm,-,N/A,,Clear,0,2013-11-03 01:52:00
9:52 PM,39.0,34.0,82,30.16,10.0,Calm,Calm,-,N/A,,Clear,0,2013-11-03 02:52:00
10:52 PM,36.0,34.0,93,30.17,10.0,Calm,Calm,-,N/A,,Clear,0,2013-11-03 03:52:00
11:52 PM,39.9,32.0,73,30.15,10.0,SSW,4.6,-,N/A,,Clear,210,2013-11-03 04:52:00